Time,TemperatureF,DewpointF,PressureIn,WindDirection,WindDirectionDegrees,WindSpeedMPH,WindSpeedGustMPH,Humidity,HourlyPrecipIn,Conditions,Clouds,dailyrainin,SolarRadiationWatts/m^2,SoftwareType,DateUTC
2013-05-05 00:03:00,59.0,48.0,-100.00,NE,43,6.0,18.0,66,0.00,,,0.10,0.000000,,2013-05-05 04:03:00,
2013-05-05 00:12:00,59.0,48.0,-100.00,NE,43,6.0,18.0,66,0.00,,,0.10,0.000000,,2013-05-05 04:12:00,
2013-05-05 00:23:00,59.0,48.0,-100.00,NE,43,6.0,18.0,66,0.00,,,0.10,0.000000,,2013-05-05 04:23:00,
2013-05-05 00:53:00,59.0,48.0,-100.00,NE,39,6.0,17.0,67,0.00,,,0.10,0.000000,,2013-05-05 04:53:00,
2013-05-05 01:02:00,59.0,48.0,-100.00,NE,39,6.0,17.0,67,0.00,,,0.10,0.000000,,2013-05-05 05:02:00,
2013-05-05 01:12:00,59.0,48.0,-100.00,NE,39,6.0,17.0,67,0.00,,,0.10,0.000000,,2013-05-05 05:12:00,
2013-05-05 01:22:00,59.0,48.0,-100.00,NE,39,6.0,17.0,67,0.00,,,0.10,0.000000,,2013-05-05 05:22:00,
2013-05-05 01:52:00,59.0,48.0,-100.00,NE,52,6.0,17.0,67,0.00,,,0.10,0.000000,,2013-05-05 05:52:00,
2013-05-05 02:02:00,59.0,48.0,-100.00,NE,52,6.0,17.0,67,0.00,,,0.10,0.000000,,2013-05-05 06:02:00,
2013-05-05 02:12:00,59.0,48.0,-100.00,NE,52,6.0,17.0,67,0.00,,,0.10,0.000000,,2013-05-05 06:12:00,
2013-05-05 02:22:00,59.0,48.0,-100.00,NE,52,6.0,17.0,67,0.00,,,0.10,0.000000,,2013-05-05 06:22:00,
2013-05-05 02:52:00,59.0,49.0,-100.00,NE,49,6.0,18.0,69,0.00,,,0.10,0.000000,,2013-05-05 06:52:00,
2013-05-05 03:01:00,59.0,49.0,-100.00,NE,49,6.0,18.0,69,0.00,,,0.10,0.000000,,2013-05-05 07:01:00,
2013-05-05 03:11:00,59.0,49.0,-100.00,NE,49,6.0,18.0,69,0.00,,,0.10,0.000000,,2013-05-05 07:11:00,
2013-05-05 03:22:00,59.0,49.0,-100.00,NE,49,6.0,18.0,69,0.00,,,0.10,0.000000,,2013-05-05 07:22:00,
2013-05-05 03:52:00,59.0,49.0,-100.00,NE,54,6.0,17.0,69,0.00,,,0.10,0.000000,,2013-05-05 07:52:00,
2013-05-05 04:02:00,59.0,49.0,-100.00,NE,54,6.0,17.0,69,0.00,,,0.10,0.000000,,2013-05-05 08:02:00,
2013-05-05 04:11:00,59.0,49.0,-100.00,NE,54,6.0,17.0,69,0.00,,,0.10,0.000000,,2013-05-05 08:11:00,
2013-05-05 04:22:00,59.0,49.0,-100.00,NE,54,6.0,17.0,69,0.00,,,0.10,0.000000,,2013-05-05 08:22:00,
2013-05-05 04:53:00,59.0,49.0,-100.00,NE,45,5.0,17.0,69,0.00,,,0.08,0.000000,,2013-05-05 08:53:00,
2013-05-05 05:01:00,59.0,49.0,-100.00,NE,45,5.0,17.0,69,0.00,,,0.08,0.000000,,2013-05-05 09:01:00,
2013-05-05 05:11:00,59.0,49.0,-100.00,NE,45,5.0,17.0,69,0.00,,,0.08,0.000000,,2013-05-05 09:11:00,
2013-05-05 05:22:00,59.0,49.0,-100.00,NE,45,5.0,17.0,69,0.00,,,0.08,0.000000,,2013-05-05 09:22:00,
2013-05-05 05:52:00,59.0,49.0,-100.00,NE,49,6.0,21.0,69,0.00,,,0.01,0.000000,,2013-05-05 09:52:00,
2013-05-05 06:03:00,59.0,49.0,-100.00,NE,49,6.0,21.0,69,0.00,,,0.01,0.000000,,2013-05-05 10:03:00,
2013-05-05 06:12:00,59.0,49.0,-100.00,NE,49,6.0,21.0,69,0.00,,,0.01,0.000000,,2013-05-05 10:12:00,
2013-05-05 06:22:00,59.0,49.0,-100.00,NE,49,6.0,21.0,69,0.00,,,0.01,0.000000,,2013-05-05 10:22:00,
2013-05-05 06:53:00,60.0,50.0,-100.00,ENE,61,6.0,18.0,69,0.00,,,0.01,2.000000,,2013-05-05 10:53:00,
2013-05-05 07:02:00,60.0,50.0,-100.00,ENE,61,6.0,18.0,69,0.00,,,0.01,2.000000,,2013-05-05 11:02:00,
2013-05-05 07:12:00,60.0,50.0,-100.00,ENE,61,6.0,18.0,69,0.00,,,0.01,2.000000,,2013-05-05 11:12:00,
2013-05-05 07:22:00,60.0,50.0,-100.00,ENE,61,6.0,18.0,69,0.00,,,0.01,2.000000,,2013-05-05 11:22:00,
2013-05-05 07:52:00,61.0,50.0,-100.00,NE,54,6.0,18.0,68,0.00,,,0.01,47.000000,,2013-05-05 11:52:00,
2013-05-05 08:02:00,61.0,50.0,-100.00,NE,54,6.0,18.0,68,0.00,,,0.01,47.000000,,2013-05-05 12:02:00,
2013-05-05 08:11:00,61.0,50.0,-100.00,NE,54,6.0,18.0,68,0.00,,,0.01,47.000000,,2013-05-05 12:11:00,
2013-05-05 08:22:00,61.0,50.0,-100.00,NE,54,6.0,18.0,68,0.00,,,0.01,47.000000,,2013-05-05 12:22:00,
2013-05-05 08:52:00,63.0,51.0,-100.00,ENE,57,6.0,17.0,66,0.00,,,0.01,143.000000,,2013-05-05 12:52:00,
2013-05-05 09:01:00,63.0,51.0,-100.00,ENE,57,6.0,17.0,66,0.00,,,0.01,143.000000,,2013-05-05 13:01:00,
2013-05-05 09:11:00,63.0,51.0,-100.00,ENE,57,6.0,17.0,66,0.00,,,0.01,143.000000,,2013-05-05 13:11:00,
2013-05-05 09:21:00,63.0,51.0,-100.00,ENE,57,6.0,17.0,66,0.00,,,0.01,143.000000,,2013-05-05 13:21:00,
2013-05-05 09:52:00,64.0,53.0,-100.00,ENE,63,5.0,19.0,67,0.00,,,0.01,216.000000,,2013-05-05 13:52:00,
2013-05-05 10:02:00,64.0,53.0,-100.00,ENE,63,5.0,19.0,67,0.00,,,0.01,216.000000,,2013-05-05 14:02:00,
2013-05-05 10:11:00,64.0,53.0,-100.00,ENE,63,5.0,19.0,67,0.00,,,0.01,216.000000,,2013-05-05 14:11:00,
2013-05-05 10:21:00,64.0,53.0,-100.00,ENE,63,5.0,19.0,67,0.00,,,0.01,216.000000,,2013-05-05 14:21:00,
2013-05-05 10:52:00,63.0,52.0,-100.00,ENE,64,7.0,18.0,67,0.00,,,0.01,518.000000,,2013-05-05 14:52:00,
2013-05-05 11:02:00,63.0,52.0,-100.00,ENE,64,7.0,18.0,67,0.00,,,0.01,518.000000,,2013-05-05 15:02:00,
2013-05-05 11:11:00,63.0,52.0,-100.00,ENE,64,7.0,18.0,67,0.00,,,0.01,518.000000,,2013-05-05 15:11:00,
2013-05-05 11:21:00,63.0,52.0,-100.00,ENE,64,7.0,18.0,67,0.00,,,0.01,518.000000,,2013-05-05 15:21:00,
2013-05-05 11:53:00,64.0,53.0,-100.00,ENE,72,7.0,18.0,68,0.01,,,0.02,426.000000,,2013-05-05 15:53:00,
2013-05-05 12:03:00,64.0,53.0,-100.00,ENE,72,7.0,18.0,68,0.01,,,0.02,426.000000,,2013-05-05 16:03:00,
2013-05-05 12:12:00,64.0,53.0,-100.00,ENE,72,7.0,18.0,68,0.01,,,0.02,426.000000,,2013-05-05 16:12:00,
2013-05-05 12:23:00,64.0,53.0,-100.00,ENE,72,7.0,18.0,68,0.01,,,0.02,426.000000,,2013-05-05 16:23:00,
2013-05-05 12:53:00,67.0,55.0,-100.00,ENE,67,7.0,17.0,65,0.00,,,0.02,684.000000,,2013-05-05 16:53:00,
2013-05-05 13:02:00,67.0,55.0,-100.00,ENE,67,7.0,17.0,65,0.00,,,0.02,684.000000,,2013-05-05 17:02:00,
2013-05-05 13:12:00,67.0,55.0,-100.00,ENE,67,7.0,17.0,65,0.00,,,0.02,684.000000,,2013-05-05 17:12:00,
2013-05-05 13:23:00,67.0,55.0,-100.00,ENE,67,7.0,17.0,65,0.00,,,0.02,684.000000,,2013-05-05 17:23:00,
2013-05-05 13:52:00,66.0,54.0,-100.00,ENE,63,8.0,20.0,65,0.00,,,0.02,774.000000,,2013-05-05 17:52:00,
2013-05-05 14:01:00,66.0,54.0,-100.00,ENE,63,8.0,20.0,65,0.00,,,0.02,774.000000,,2013-05-05 18:01:00,
2013-05-05 14:12:00,66.0,54.0,-100.00,ENE,63,8.0,20.0,65,0.00,,,0.02,774.000000,,2013-05-05 18:12:00,
2013-05-05 14:21:00,66.0,54.0,-100.00,ENE,63,8.0,20.0,65,0.00,,,0.02,774.000000,,2013-05-05 18:21:00,
2013-05-05 14:52:00,68.0,55.0,-100.00,ENE,65,7.0,16.0,64,0.00,,,0.02,910.000000,,2013-05-05 18:52:00,
2013-05-05 15:01:00,68.0,55.0,-100.00,ENE,65,7.0,16.0,64,0.00,,,0.02,910.000000,,2013-05-05 19:01:00,
2013-05-05 15:12:00,68.0,55.0,-100.00,ENE,65,7.0,16.0,64,0.00,,,0.02,910.000000,,2013-05-05 19:12:00,
2013-05-05 15:21:00,68.0,55.0,-100.00,ENE,65,7.0,16.0,64,0.00,,,0.02,910.000000,,2013-05-05 19:21:00,
2013-05-05 15:52:00,67.0,55.0,-100.00,ENE,69,8.0,16.0,65,0.00,,,0.01,646.000000,,2013-05-05 19:52:00,
2013-05-05 16:02:00,67.0,55.0,-100.00,ENE,69,8.0,16.0,65,0.00,,,0.01,646.000000,,2013-05-05 20:02:00,
2013-05-05 16:11:00,67.0,55.0,-100.00,ENE,69,8.0,16.0,65,0.00,,,0.01,646.000000,,2013-05-05 20:11:00,
2013-05-05 16:21:00,67.0,55.0,-100.00,ENE,69,8.0,16.0,65,0.00,,,0.01,646.000000,,2013-05-05 20:21:00,
2013-05-05 16:52:00,68.0,56.0,-100.00,ENE,68,7.0,16.0,65,0.00,,,0.01,576.000000,,2013-05-05 20:52:00,
2013-05-05 17:02:00,68.0,56.0,-100.00,ENE,68,7.0,16.0,65,0.00,,,0.01,576.000000,,2013-05-05 21:02:00,
2013-05-05 17:11:00,68.0,56.0,-100.00,ENE,68,7.0,16.0,65,0.00,,,0.01,576.000000,,2013-05-05 21:11:00,
2013-05-05 17:22:00,68.0,56.0,-100.00,ENE,68,7.0,16.0,65,0.00,,,0.01,576.000000,,2013-05-05 21:22:00,
2013-05-05 17:53:00,66.0,55.0,-100.00,ENE,65,12.0,17.0,67,0.00,,,0.01,277.000000,,2013-05-05 21:53:00,
2013-05-05 18:03:00,66.0,55.0,-100.00,ENE,65,12.0,17.0,67,0.00,,,0.01,277.000000,,2013-05-05 22:03:00,
2013-05-05 18:12:00,66.0,55.0,-100.00,ENE,65,12.0,17.0,67,0.00,,,0.01,277.000000,,2013-05-05 22:12:00,
2013-05-05 18:22:00,66.0,55.0,-100.00,ENE,65,12.0,17.0,67,0.00,,,0.01,277.000000,,2013-05-05 22:22:00,
2013-05-05 18:52:00,65.0,54.0,-100.00,ENE,68,12.0,17.0,68,0.00,,,0.01,162.000000,,2013-05-05 22:52:00,
2013-05-05 19:02:00,65.0,54.0,-100.00,ENE,68,12.0,17.0,68,0.00,,,0.01,162.000000,,2013-05-05 23:02:00,
2013-05-05 19:12:00,65.0,54.0,-100.00,ENE,68,12.0,17.0,68,0.00,,,0.01,162.000000,,2013-05-05 23:12:00,
2013-05-05 19:22:00,65.0,54.0,-100.00,ENE,68,12.0,17.0,68,0.00,,,0.01,162.000000,,2013-05-05 23:22:00,
2013-05-05 19:52:00,64.0,53.0,-100.00,ENE,67,18.0,26.0,68,0.00,,,0.01,58.000000,,2013-05-05 23:52:00,
2013-05-05 20:01:00,64.0,53.0,-100.00,ENE,67,18.0,26.0,68,0.00,,,0.01,58.000000,,2013-05-06 00:01:00,
2013-05-05 20:11:00,64.0,53.0,-100.00,ENE,67,18.0,26.0,68,0.00,,,0.01,58.000000,,2013-05-06 00:11:00,
2013-05-05 20:22:00,64.0,53.0,-100.00,ENE,67,18.0,26.0,68,0.00,,,0.01,58.000000,,2013-05-06 00:22:00,
2013-05-05 20:52:00,64.0,53.0,-100.00,ENE,66,14.0,23.0,68,0.00,,,0.01,5.000000,,2013-05-06 00:52:00,
2013-05-05 21:01:00,64.0,53.0,-100.00,ENE,66,14.0,23.0,68,0.00,,,0.01,5.000000,,2013-05-06 01:01:00,
2013-05-05 21:11:00,64.0,53.0,-100.00,ENE,66,14.0,23.0,68,0.00,,,0.01,5.000000,,2013-05-06 01:11:00,
2013-05-05 21:21:00,64.0,53.0,-100.00,ENE,66,14.0,23.0,68,0.00,,,0.01,5.000000,,2013-05-06 01:21:00,
2013-05-05 21:52:00,63.0,53.0,-100.00,ENE,66,14.0,21.0,69,0.00,,,0.01,0.000000,,2013-05-06 01:52:00,
2013-05-05 22:02:00,63.0,53.0,-100.00,ENE,66,14.0,21.0,69,0.00,,,0.01,0.000000,,2013-05-06 02:02:00,
2013-05-05 22:12:00,63.0,53.0,-100.00,ENE,66,14.0,21.0,69,0.00,,,0.01,0.000000,,2013-05-06 02:12:00,
2013-05-05 22:21:00,63.0,53.0,-100.00,ENE,66,14.0,21.0,69,0.00,,,0.01,0.000000,,2013-05-06 02:21:00,
2013-05-05 22:52:00,63.0,52.0,-100.00,ENE,66,14.0,22.0,68,0.00,,,0.01,0.000000,,2013-05-06 02:52:00,
2013-05-05 23:02:00,63.0,52.0,-100.00,ENE,66,14.0,22.0,68,0.00,,,0.01,0.000000,,2013-05-06 03:02:00,
2013-05-05 23:11:00,63.0,52.0,-100.00,ENE,66,14.0,22.0,68,0.00,,,0.01,0.000000,,2013-05-06 03:11:00,
2013-05-05 23:22:00,63.0,52.0,-100.00,ENE,66,14.0,22.0,68,0.00,,,0.01,0.000000,,2013-05-06 03:22:00,
2013-05-05 23:53:00,63.0,52.0,-100.00,ENE,70,11.0,17.0,68,0.00,,,0.01,0.000000,,2013-05-06 03:53:00,